Flag for Netherlands Weather past 2 weeks in Leiden, Netherlands

59 °F

Broken clouds.

Feels Like: 57 °F
Forecast: 56 / 59 °F
Wind: 10 mph from Southwest

Location: Rotterdam Zestienhoven Airport

Current Time: Oct 7, 2015 at 7:40:40 PM

Latest Report: Oct 7, 2015 at 6:55 PM

Visibility: N/A

Pressure: 29.86 "Hg

Humidity: 94%

Dew point: 57 °F

Location of LeidenLocation

Historic Weather in Leiden — Graph


Leiden temperature yesterday

Maximum temperature yesterday: 64 °F (at 1:55 PM)
Minimum temperature yesterday: 55 °F (at 3:25 AM)
Average temperature yesterday: 60 °F

Past Weeks' High & Low Weather Summary

High66 °F (Oct 3, 3:25 PM)100% (Sep 22, 7:55 PM)30.66 "Hg (Sep 22, 7:55 PM)
Low37 °F (Oct 3, 4:55 AM)52% (Oct 2, 2:55 PM)29.47 "Hg (Sep 22, 5:25 PM)
Average54 °F87%30.14 "Hg
* Reported Sep 22 5:25 PM — Oct 7 5:55 PM, Leiden, Weather by CustomWeather, © 2015

Note: Actual official high and low records may vary slightly from our data, if they occured in-between our weather recording intervals... More about our weather records


Leiden weather history for previous 24 hours

Time TempWeatherWind HumidityBarometerVisibility
5:55 PM
Wed, Oct 7
61 °FRain. Broken clouds.10 mph94%29.83 "HgN/A
5:25 PM61 °FDrizzle. Broken clouds.12 mph94%29.83 "HgN/A
4:55 PM61 °FMostly cloudy.12 mph94%29.80 "HgN/A
4:25 PM61 °FBroken clouds.13 mph94%29.80 "HgN/A
3:55 PM59 °FLight rain. Broken clouds.9 mph100%29.80 "HgN/A
3:25 PM59 °FLight rain. Broken clouds.10 mph100%29.80 "HgN/A
2:55 PM61 °FLight rain. Partly sunny.9 mph94%29.77 "HgN/A
2:25 PM61 °FRain showers. Broken clouds.14 mph94%29.77 "Hg4 mi
1:55 PM61 °FLight rain. Broken clouds.10 mph88%29.77 "HgN/A
1:25 PM63 °FBroken clouds.15 mph83%29.77 "HgN/A
12:55 PM61 °FOvercast.12 mph88%29.74 "HgN/A
12:25 PM61 °FOvercast.15 mph88%29.74 "HgN/A
11:55 AM61 °FMostly cloudy.13 mph88%29.74 "HgN/A
11:25 AM59 °FMostly cloudy.12 mph94%29.74 "HgN/A
10:55 AM59 °FMostly cloudy.15 mph94%29.71 "HgN/A
10:25 AM59 °FLight rain. Partly sunny.14 mph88%29.71 "HgN/A
9:55 AM59 °FCloudy.15 mph88%29.71 "HgN/A
9:25 AM59 °FMore clouds than sun.13 mph88%29.68 "HgN/A
8:55 AM59 °FMore clouds than sun.13 mph88%29.68 "HgN/A
8:25 AM59 °FMostly cloudy.10 mph88%29.68 "HgN/A
7:55 AM59 °FMostly cloudy.13 mph88%29.65 "HgN/A
7:25 AM59 °FPassing clouds.13 mph88%29.65 "HgN/A
6:55 AM59 °FLight rain. Mostly cloudy.9 mph88%29.65 "HgN/A
6:25 AM59 °FOvercast.12 mph88%29.62 "HgN/A
5:55 AM59 °FPassing clouds.12 mph94%29.62 "HgN/A
5:25 AM59 °FPassing clouds.10 mph94%29.62 "HgN/A
4:55 AM59 °FClear.9 mph94%29.62 "HgN/A
4:25 AM59 °FPassing clouds.9 mph94%29.62 "HgN/A
3:55 AM59 °FClear.9 mph94%29.62 "HgN/A
3:25 AM59 °FClear.12 mph94%29.59 "HgN/A
2:55 AM59 °FClear.12 mph94%29.59 "HgN/A
2:25 AM59 °FPassing clouds.9 mph94%29.59 "HgN/A
1:55 AM59 °FClear.9 mph94%29.59 "HgN/A
1:25 AM61 °FClear.9 mph94%29.59 "HgN/A
12:55 AM61 °FClear.8 mph94%29.59 "HgN/A
12:25 AM61 °FClear.9 mph88%29.59 "HgN/A
11:55 PM
Tue, Oct 6
61 °FPassing clouds.10 mph94%29.56 "HgN/A
11:25 PM63 °FLight rain. Partly cloudy.8 mph88%29.56 "HgN/A
10:55 PM63 °FPassing clouds.8 mph88%29.56 "HgN/A
10:25 PM63 °FPassing clouds.10 mph88%29.56 "HgN/A
9:55 PM63 °FClear.8 mph88%29.56 "HgN/A
9:25 PM63 °FPassing clouds.10 mph88%29.56 "HgN/A
8:55 PM64 °FLight rain. Passing clouds.14 mph88%29.56 "HgN/A
8:25 PM64 °FClear.10 mph88%29.53 "HgN/A
7:55 PM63 °FClear.8 mph94%29.53 "HgN/A
7:25 PM64 °FMild.8 mph88%29.53 "HgN/A
Weather by CustomWeather, © 2015

See weather overviewHow to use our weather pages